Zurück zum Katalog

KUIPER-00533

AktivKommunikationLEO
NORAD 69605·PAYLOAD·🇺🇸 United States

Gestartet Jun 17, 2026 von Guiana Space Centre

Loading…

Nächste Überflüge (nächste 24 Stunden)

TLE

AktuellSource: CelesTrak SupGP

Epoche: Sep 14, 2026, 23:22 UTC

1 69605C 26140P   26257.97370370  .00001419  00000+0  18579-3 0  2571
2 69605  51.9019 336.1422 0000419  81.0250 319.4323 14.79920334    12

Verfolge KUIPER-00533 in Echtzeit mit AllMySat

Download on the App Store